Weather History for KZZV - March, 2013

Change the Weather History Date:

Thursday, March 28, 2013

  Actual Average Record
Temperature  
Mean Temperature 38 °F 45 °F  
Max Temperature 46 °F 56 °F 83 °F (1989)
Min Temperature 29 °F 34 °F 12 °F (1982)
Degree Days  
Heating Degree Days 27 20  
Month to date heating degree days 820 693  
Since 1 July heating degree days 4951 4884  
Cooling Degree Days 0 0  
Month to date cooling degree days 0 0  
Year to date cooling degree days 0 0  
Moisture  
Dew Point 25 °F    
Average Humidity 59    
Maximum Humidity 72    
Minimum Humidity 45    
Precipitation  
Precipitation 0.00 in 0.11 in 1.14 in (2005)
Month to date precipitation 2.18 2.66  
Year to date precipitation 6.66 7.49  
Sea Level Pressure  
Sea Level Pressure 30.26 in    
Wind  
Wind Speed 7 mph (WNW)    
Max Wind Speed 18 mph    
Max Gust Speed 25 mph    
Visibility 10 miles    
Events      
T = Trace of Precipitation, MM = Missing Value Source: NWS Daily Summary

Daily Weather History Graph

Daily Weather History Graph

Search for Another Location

Airport or City:

Trip Planner

Search our weather history database for the weather conditions in past years. The results will help you decide how hot, cold, wet, or windy it might be!

Date:

Astronomy

Mar. 28, 2013 Rise Set
Actual Time 7:17 AM EDT 7:48 PM EDT
Civil Twilight 6:50 AM EDT 8:15 PM EDT
Nautical Twilight 6:18 AM EDT 8:47 PM EDT
Astronomical Twilight 5:45 AM EDT 9:20 PM EDT
Moon 9:38 PM EDT (3/28) 7:44 AM EDT (3/28)
Length of Visible Light 13h 24m
Length of Day
12h 30m
Full, 98% of the Moon is Illuminated
Mar 28
Full
Apr 3
Last Quarter
Apr 10
New
Apr 18
First Quarter
Apr 25
Full

Hourly Weather History & Observations

Time (EDT) Temp. Windchill Dew Point Humidity Pressure Visibility Wind Dir Wind Speed Gust Speed Precip Events Conditions
12:53 AM 36.0 °F 30.3 °F 25.0 °F 64% 30.24 in 10.0 mi West 6.9 mph - N/A   Overcast
1:53 AM 35.1 °F 28.6 °F 25.0 °F 67% 30.24 in 10.0 mi West 8.1 mph - N/A   Scattered Clouds
2:53 AM 34.0 °F 26.6 °F 24.1 °F 67% 30.23 in 10.0 mi West 9.2 mph - N/A   Mostly Cloudy
3:53 AM 32.0 °F 26.4 °F 24.1 °F 73% 30.23 in 10.0 mi WSW 5.8 mph - N/A   Partly Cloudy
4:53 AM 30.9 °F 26.2 °F 23.0 °F 72% 30.23 in 10.0 mi WSW 4.6 mph - N/A   Clear
5:53 AM 30.0 °F 24.1 °F 23.0 °F 75% 30.23 in 10.0 mi West 5.8 mph - N/A   Scattered Clouds
6:53 AM 30.0 °F 25.2 °F 21.9 °F 72% 30.24 in 10.0 mi West 4.6 mph - N/A   Partly Cloudy
7:53 AM 30.0 °F 26.5 °F 21.9 °F 72% 30.27 in 10.0 mi Variable 3.5 mph - N/A   Partly Cloudy
8:53 AM 32.0 °F 27.5 °F 23.0 °F 69% 30.28 in 10.0 mi WNW 4.6 mph - N/A   Mostly Cloudy
9:53 AM 35.1 °F 27.9 °F 21.9 °F 59% 30.28 in 10.0 mi WNW 9.2 mph - N/A   Mostly Cloudy
10:53 AM 39.9 °F 32.5 °F 25.0 °F 55% 30.28 in 10.0 mi NW 12.7 mph - N/A   Clear
11:53 AM 43.0 °F 36.8 °F 25.0 °F 49% 30.29 in 10.0 mi WNW 11.5 mph - N/A   Scattered Clouds
12:53 PM 44.1 °F 36.8 °F 25.0 °F 47% 30.27 in 10.0 mi NW 16.1 mph 20.7 mph N/A   Overcast
1:53 PM 45.0 °F 40.1 °F 26.1 °F 48% 30.27 in 10.0 mi WNW 9.2 mph 17.3 mph N/A   Overcast
2:53 PM 45.0 °F 39.7 °F 25.0 °F 46% 30.26 in 10.0 mi NW 10.4 mph 17.3 mph N/A   Overcast
3:53 PM 45.0 °F 38.9 °F 26.1 °F 48% 30.26 in 10.0 mi NW 12.7 mph - N/A   Overcast
4:53 PM 46.0 °F 40.2 °F 26.1 °F 46% 30.25 in 10.0 mi NW 12.7 mph 20.7 mph N/A   Overcast
5:53 PM 45.0 °F 38.9 °F 26.1 °F 48% 30.26 in 10.0 mi NW 12.7 mph - N/A   Overcast
6:53 PM 45.0 °F 41.2 °F 27.0 °F 49% 30.27 in 10.0 mi NW 6.9 mph - N/A   Overcast
7:53 PM 44.1 °F 41.5 °F 27.0 °F 51% 30.27 in 10.0 mi NW 4.6 mph - N/A   Overcast
8:53 PM 43.0 °F - 27.0 °F 53% 30.29 in 10.0 mi Calm Calm - N/A   Overcast
9:53 PM 42.1 °F 39.2 °F 28.0 °F 58% 30.29 in 10.0 mi WNW 4.6 mph - N/A   Overcast
10:53 PM 42.1 °F 38.4 °F 28.0 °F 58% 30.30 in 10.0 mi WNW 5.8 mph - N/A   Overcast
11:53 PM 41.0 °F 39.0 °F 27.0 °F 57% 30.30 in 10.0 mi West 3.5 mph - N/A   Overcast